Back to catalog

YAOGAN 20C

AliveMilitaryLEO
NORAD 40111·PAYLOAD·🇨🇳 China

Launched Aug 9, 2014 from Jiuquan Satellite Launch Center

Loading…

Next Passes (next 24 hours)

TLE

FreshSource: Space-Track

Epoch: Sep 14, 2026, 14:47 UTC

1 40111U 14047C   26257.61661286 -.00000003  00000-0  91545-4 0  9993
2 40111  63.3772 149.0988 0397935  15.5883 345.6990 13.45456262594329

Track YAOGAN 20C in real time with AllMySat

Download on the App Store